• In Hungary
  • List of Countries
  • For 7 days
  • Water Temperature
  • Satellite Maps
  • Weather Map
  • News
  • Weather Widgets
  • user-avatar
    Login

    Hourly Weather Szigetszentmiklos

    Today, 24 September, Monday

    Time Temperature Precipitation Wind Pressure Humidity
    00:00 +19°C° 0.2 mm 4 mps 749 mmHg 65%
    01:00 +18°C° 0 mm 3 mps 748 mmHg 75%
    02:00 +17°C° 0.3 mm 5 mps 748 mmHg 74%
    03:00 +17°C° 0.3 mm 7 mps 749 mmHg 72%
    04:00 +16°C° 0.3 mm 10 mps 750 mmHg 70%
    05:00 +15°C° 0.4 mm 9 mps 751 mmHg 70%
    06:00 +12°C° 0.4 mm 8 mps 753 mmHg 70%
    07:00 +11°C° 0 mm 7 mps 754 mmHg 71%
    08:00 +11°C° 0.2 mm 7 mps 755 mmHg 68%
    09:00 +11°C° 0.2 mm 8 mps 756 mmHg 64%
    10:00 +11°C° 0.2 mm 8 mps 757 mmHg 60%
    11:00 +12°C° 0 mm 8 mps 758 mmHg 54%
    12:00 +13°C° 0 mm 8 mps 758 mmHg 47%
    13:00 +16°C° 0 mm 8 mps 758 mmHg 41%
    14:00 +15°C° 0 mm 8 mps 759 mmHg 40%
    15:00 +15°C° 0 mm 8 mps 759 mmHg 38%
    16:00 +15°C° 0 mm 8 mps 759 mmHg 37%
    17:00 +14°C° 0 mm 7 mps 759 mmHg 41%
    18:00 +13°C° 0 mm 6 mps 760 mmHg 44%
    19:00 +12°C° 0 mm 5 mps 760 mmHg 48%
    20:00 +12°C° 0 mm 5 mps 761 mmHg 49%
    21:00 +10°C° 0 mm 5 mps 761 mmHg 50%
    22:00 +10°C° 0 mm 5 mps 762 mmHg 51%
    23:00 +9°C° 0 mm 5 mps 762 mmHg 53%

    Tomorrow, 25 September, Tuesday

    Time Temperature Precipitation Wind Pressure Humidity
    00:00 +9°C° 0 mm 5 mps 762 mmHg 56%
    01:00 +8°C° 0 mm 5 mps 762 mmHg 58%
    02:00 +8°C° 0 mm 5 mps 763 mmHg 60%
    03:00 +7°C° 0 mm 5 mps 763 mmHg 63%
    04:00 +7°C° 0 mm 5 mps 763 mmHg 65%
    05:00 +7°C° 0 mm 5 mps 763 mmHg 64%
    06:00 +8°C° 0 mm 5 mps 764 mmHg 63%
    07:00 +8°C° 0 mm 5 mps 764 mmHg 62%
    08:00 +9°C° 0 mm 5 mps 765 mmHg 55%
    09:00 +12°C° 0 mm 5 mps 765 mmHg 48%
    10:00 +13°C° 0 mm 5 mps 766 mmHg 41%
    11:00 +14°C° 0 mm 5 mps 766 mmHg 38%
    12:00 +15°C° 0 mm 5 mps 766 mmHg 35%
    13:00 +15°C° 0 mm 5 mps 766 mmHg 33%
    14:00 +15°C° 0 mm 5 mps 766 mmHg 33%
    15:00 +15°C° 0 mm 5 mps 766 mmHg 34%
    16:00 +15°C° 0 mm 5 mps 766 mmHg 34%
    17:00 +13°C° 0 mm 4 mps 766 mmHg 39%
    18:00 +12°C° 0 mm 4 mps 767 mmHg 43%
    19:00 +11°C° 0 mm 3 mps 767 mmHg 47%
    20:00 +10°C° 0 mm 3 mps 768 mmHg 50%
    21:00 +10°C° 0 mm 3 mps 768 mmHg 52%
    22:00 +9°C° 0 mm 3 mps 769 mmHg 55%
    23:00 +9°C° 0 mm 3 mps 769 mmHg 57%

    Day after tomorrow, 26 September, Wednesday

    Time Temperature Precipitation Wind Pressure Humidity
    00:00 +8°C° 0 mm 2 mps 769 mmHg 59%
    01:00 +8°C° 0 mm 2 mps 769 mmHg 61%
    02:00 +7°C° 0 mm 2 mps 769 mmHg 62%
    03:00 +7°C° 0 mm 2 mps 769 mmHg 63%
    04:00 +8°C° 0 mm 1 mps 769 mmHg 63%
    05:00 +8°C° 0 mm 1 mps 769 mmHg 61%
    06:00 +9°C° 0 mm 1 mps 770 mmHg 59%
    07:00 +9°C° 0 mm 1 mps 770 mmHg 56%
    08:00 +11°C° 0 mm 1 mps 770 mmHg 49%
    09:00 +13°C° 0 mm 2 mps 770 mmHg 41%
    10:00 +15°C° 0 mm 2 mps 770 mmHg 34%
    11:00 +15°C° 0 mm 2 mps 770 mmHg 32%
    12:00 +16°C° 0 mm 1 mps 769 mmHg 30%
    13:00 +18°C° 0 mm 1 mps 769 mmHg 28%
    14:00 +18°C° 0 mm 1 mps 768 mmHg 28%
    15:00 +18°C° 0 mm 1 mps 768 mmHg 28%
    16:00 +18°C° 0 mm 1 mps 767 mmHg 28%
    17:00 +16°C° 0 mm 1 mps 767 mmHg 31%
    18:00 +14°C° 0 mm 1 mps 767 mmHg 33%
    19:00 +13°C° 0 mm 1 mps 767 mmHg 36%
    20:00 +12°C° 0 mm 1 mps 767 mmHg 37%
    21:00 +12°C° 0 mm 1 mps 767 mmHg 38%
    22:00 +11°C° 0 mm 1 mps 767 mmHg 39%
    23:00 +11°C° 0 mm 1 mps 767 mmHg 40%

    27 September, Thursday

    Time Temperature Precipitation Wind Pressure Humidity
    00:00 +11°C° 0 mm 1 mps 767 mmHg 41%
    01:00 +9°C° 0 mm 2 mps 767 mmHg 42%
    02:00 +10°C° 0 mm 1 mps 766 mmHg 43%
    03:00 +10°C° 0 mm 1 mps 766 mmHg 45%
    04:00 +10°C° 0 mm 1 mps 766 mmHg 46%
    05:00 +10°C° 0 mm 1 mps 766 mmHg 46%
    06:00 +11°C° 0 mm 1 mps 766 mmHg 46%
    07:00 +11°C° 0 mm 1 mps 766 mmHg 45%
    08:00 +13°C° 0 mm 2 mps 766 mmHg 41%
    09:00 +15°C° 0 mm 2 mps 766 mmHg 37%
    10:00 +18°C° 0 mm 2 mps 765 mmHg 33%
    11:00 +19°C° 0 mm 2 mps 765 mmHg 30%
    12:00 +20°C° 0 mm 2 mps 764 mmHg 28%
    13:00 +21°C° 0 mm 2 mps 764 mmHg 25%
    14:00 +23°C° 0 mm 2 mps 763 mmHg 26%
    15:00 +23°C° 0 mm 2 mps 763 mmHg 27%
    16:00 +23°C° 0 mm 2 mps 762 mmHg 28%
    17:00 +21°C° 0 mm 1 mps 762 mmHg 32%
    18:00 +19°C° 0 mm 1 mps 762 mmHg 36%
    19:00 +16°C° 0 mm 1 mps 762 mmHg 40%
    20:00 +15°C° 0 mm 0 mps 761 mmHg 41%
    21:00 +14°C° 0 mm 0 mps 761 mmHg 43%
    22:00 +14°C° 0 mm 0 mps 761 mmHg 44%
    23:00 +14°C° 0 mm 0 mps 761 mmHg 45%

    28 September, Friday

    Time Temperature Precipitation Wind Pressure Humidity
    00:00 +13°C° 0 mm 0 mps 760 mmHg 47%
    01:00 +13°C° 0 mm 0 mps 760 mmHg 48%
    02:00 +13°C° 0 mm 0 mps 760 mmHg 49%
    03:00 +12°C° 0 mm 0 mps 759 mmHg 50%
    04:00 +12°C° 0 mm 0 mps 759 mmHg 51%
    05:00 +13°C° 0 mm 0 mps 759 mmHg 50%
    06:00 +13°C° 0 mm 0 mps 759 mmHg 50%
    07:00 +14°C° 0 mm 0 mps 759 mmHg 49%
    08:00 +16°C° 0 mm 0 mps 759 mmHg 43%
    09:00 +20°C° 0 mm 1 mps 758 mmHg 38%
    10:00 +22°C° 0 mm 1 mps 758 mmHg 32%
    11:00 +23°C° 0 mm 1 mps 758 mmHg 31%
    12:00 +24°C° 0 mm 1 mps 757 mmHg 30%
    13:00 +26°C° 0 mm 1 mps 757 mmHg 28%
    14:00 +25°C° 0 mm 1 mps 756 mmHg 29%
    15:00 +25°C° 0 mm 1 mps 756 mmHg 30%
    16:00 +23°C° 0 mm 0 mps 755 mmHg 31%
    17:00 +21°C° 0 mm 0 mps 755 mmHg 35%
    18:00 +20°C° 0 mm 0 mps 755 mmHg 39%
    19:00 +18°C° 0 mm 0 mps 755 mmHg 43%
    20:00 +17°C° 0 mm 0 mps 755 mmHg 45%
    21:00 +17°C° 0 mm 0 mps 755 mmHg 47%
    22:00 +16°C° 0 mm 0 mps 755 mmHg 48%
    23:00 +18°C° 0 mm 1 mps 755 mmHg 50%

    29 September, Saturday

    Time Temperature Precipitation Wind Pressure Humidity
    00:00 +16°C° 0 mm 1 mps 754 mmHg 52%
    01:00 +16°C° 0 mm 1 mps 754 mmHg 53%
    02:00 +15°C° 0 mm 1 mps 754 mmHg 55%
    03:00 +15°C° 0 mm 1 mps 754 mmHg 57%
    04:00 +14°C° 0 mm 1 mps 754 mmHg 59%
    05:00 +15°C° 0 mm 1 mps 754 mmHg 58%
    06:00 +15°C° 0 mm 2 mps 754 mmHg 58%
    07:00 +15°C° 0 mm 2 mps 754 mmHg 57%
    08:00 +17°C° 0 mm 2 mps 755 mmHg 51%
    09:00 +19°C° 0 mm 3 mps 755 mmHg 45%
    10:00 +21°C° 0 mm 3 mps 755 mmHg 39%
    11:00 +22°C° 0 mm 4 mps 755 mmHg 39%
    12:00 +23°C° 0 mm 4 mps 755 mmHg 38%
    13:00 +25°C° 0 mm 4 mps 755 mmHg 37%
    14:00 +23°C° 0 mm 5 mps 755 mmHg 40%
    15:00 +22°C° 0 mm 5 mps 755 mmHg 43%
    16:00 +21°C° 0 mm 5 mps 755 mmHg 46%
    17:00 +19°C° 0 mm 5 mps 756 mmHg 47%
    18:00 +17°C° 0 mm 5 mps 757 mmHg 49%
    19:00 +15°C° 0 mm 6 mps 757 mmHg 50%
    20:00 +14°C° 0 mm 5 mps 758 mmHg 49%
    21:00 +14°C° 0 mm 5 mps 758 mmHg 49%
    22:00 +13°C° 0 mm 5 mps 759 mmHg 49%
    23:00 +12°C° 0 mm 5 mps 759 mmHg 50%
    Show more